This demonstration page uses our WeatherBlox Daily Observations layout. Learn more.

Left ArrowRight Arrow

38.88101, -77.10428

Hourly Observations for June 30, 2021

Temp ( °F °C ) Dew Point ( °F °C ) Humidity (%) Winds ( mph kmh ) Pressure ( in mb ) Visibility ( mi km ) Precip ( " mm )
12:52 am 00:52 Mostly Clear 82 27.8 70 21.1 67 67 S 8 13 30.16 1021 10 16 N/A
1:52 am 01:52 Mostly Clear 81 27.2 69 20.6 67 67 S 7 11 30.14 1021 10 16 N/A
2:52 am 02:52 Mostly Clear 79 26.1 69 20.6 72 72 SSW 7 11 30.13 1020 10 16 N/A
3:52 am 03:52 Mostly Clear 78 25.6 68 20 71 71 SSW 7 11 30.12 1020 10 16 N/A
4:52 am 04:52 Clear 77 25 68 20 74 74 SSW 7 11 30.11 1020 10 16 N/A
5:52 am 05:52 Mostly Sunny 76 24.4 68 20 77 77 SSW 6 9 30.11 1020 10 16 N/A
6:52 am 06:52 Mostly Sunny 77 25 67 19.4 71 71 SSW 8 13 30.10 1019 10 16 N/A
7:52 am 07:52 Mostly Sunny 80 26.7 68 20 67 67 SSW 8 13 30.10 1019 10 16 N/A
8:52 am 08:52 Mostly Sunny 83 28.3 69 20.6 63 63 SSW 6 9 30.10 1019 10 16 N/A
9:52 am 09:52 Mostly Sunny 85 29.4 71 21.7 63 63 SSE 10 17 30.09 1019 10 16 N/A
10:52 am 10:52 Mostly Sunny 90 32.2 69 20.6 50 50 VRB 6 9 30.08 1019 10 16 N/A
11:52 am 11:52 Partly Cloudy 91 32.8 70 21.1 50 50 E 5 7 30.07 1018 10 16 N/A
12:52 pm 12:52 Partly Cloudy 91 32.8 72 22.2 54 54 SSE 8 13 30.05 1018 10 16 N/A
1:52 pm 13:52 Partly Cloudy 94 34.4 73 22.8 51 51 SSW 6 9 30.03 1017 10 16 N/A
2:52 pm 14:52 Partly Cloudy 91 32.8 73 22.8 56 56 S 13 20 29.99 1016 10 16 N/A
3:52 pm 15:52 Partly Cloudy 94 34.4 73 22.8 51 51 S 12 19 29.97 1015 10 16 N/A
4:52 pm 16:52 Mostly Cloudy 94 34.4 69 20.6 44 44 SW 15 24 29.97 1015 10 16 N/A
5:52 pm 17:52 Partly Cloudy 93 33.9 71 21.7 49 49 S 13 20 29.95 1014 10 16 N/A
6:52 pm 18:52 Partly Cloudy 93 33.9 69 20.6 46 46 SW 13 20 29.95 1014 10 16 N/A
7:52 pm 19:52 Mostly Cloudy with Nearby Thunderstorms 92 33.3 68 20 46 46 SSW 10 17 29.96 1014 10 16 N/A
8:08 pm 20:08 Mostly Cloudy with Thunderstorms 88 31.1 67 19.4 50 50 NW 15 24 29.99 1015 10 16 N/A
8:18 pm 20:18 Mostly Cloudy with Thunderstorms 85 29.4 67 19.4 55 55 NW 21 33 29.99 1015 10 16 N/A
8:26 pm 20:26 Mostly Cloudy with Thunderstorms 82 27.8 69 20.6 65 65 NW 13 20 29.99 1015 10 16 0.00 0.00
8:44 pm 20:44 Mostly Cloudy with Light Rain 81 27.2 70 21.1 69 69 VRB 7 11 29.98 1015 10 16 0.01 0.25
8:52 pm 20:52 Mostly Cloudy 80 26.7 69 20.6 69 69 NNW 6 9 29.98 1015 10 16 0.01 0.25
9:49 pm 21:49 Mostly Cloudy with Nearby Thunderstorms 81 27 70 21 70 70 NW 6 9 30.00 1016 10 16 N/A
9:52 pm 21:52 Mostly Cloudy with Nearby Thunderstorms 81 27.2 69 20.6 67 67 NW 6 9 30.00 1016 10 16 N/A
10:04 pm 22:04 Mostly Cloudy 81 27.2 69 20.6 67 67 WSW 5 7 30.00 1016 10 16 N/A
10:16 pm 22:16 Mostly Cloudy with Thunderstorms 80 26.7 70 21.1 71 71 N 7 11 30.00 1016 10 16 0.00 0.00
10:33 pm 22:33 Cloudy with Thunderstorms 77 25 70 21.1 79 79 NNW 10 17 29.99 1015 10 16 0.02 0.51
10:52 pm 22:52 Mostly Cloudy with Thunderstorms 77 25 70 21.1 79 79 NNW 6 9 29.98 1015 10 16 0.02 0.51
10:59 pm 22:59 Mostly Cloudy with Nearby Thunderstorms 77 25 69 20.6 77 77 NNW 6 9 29.98 1015 10 16 N/A
11:10 pm 23:10 Mostly Cloudy 78 25.6 68 20 71 71 NW 8 13 29.98 1015 10 16 N/A
11:52 pm 23:52 Mostly Cloudy 78 25.6 70 21.1 76 76 NW 3 6 29.98 1015 10 16 N/A

Powered by AerisWeather